Regional Weather Roundup
Issued by NWS Austin/San Antonio, TX

Home | Current Version | Previous Version | Text Only | Print | Product List | Glossary On
Versions: 1 2 3 4 5 6 7 8 9 10 11 12 13 14 15 16 17 18 19 20 21 22 23 24 25 26 27 28 29 30 31 32 33 34 35 36 37 38 39 40 41 42 43 44 45 46 47 48 49 50
000
ASUS44 KEWX 271311
RWREWX
SOUTH TEXAS REGIONAL WEATHER ROUNDUP
NATIONAL WEATHER SERVICE AUSTIN/SAN ANTONIO TX
700 AM CST MON JAN 27 2020

NOTE: "FAIR" INDICATED FEW OR NO CLOUDS BELOW 12,000 FEET WITH NO
SIGNIFICANT WEATHER AND/OR OBSTRUCTIONS TO VISIBILITY.

* - THESE STATIONS ARE NOT NWS OR FAA STATIONS...AND ARE NOT SUBJECT
    TO NWS AND FAA QUALITY CONTROL.

TXZ171-172-183>190-271400-
TEXAS HILL COUNTRY AND EDWARDS PLATEAU

CITY           SKY/WX    TMP DP  RH WIND       PRES   REMARKS
JUNCTION       CLEAR     37  34  89 CALM      30.01S
*LLANO         MOCLDY    39  37  93 CALM      30.05R
BURNET         CLEAR     45  43  93 CALM      30.03S
*HORSESHOE BAY NOT AVBL
*LAGO VISTA    CLEAR     48  47  98 E3        30.02R FOG
*KERRVILLE     CLEAR     38  36  91 CALM      30.02R
*FREDERICKSBRG CLEAR     38  36  93 CALM      30.02S
*ROCKSPRINGS   CLEAR     48  43  81 SE8       30.04S WCI  45
*BOERNE        CLEAR     39  39 100 CALM      30.03R
*CASTROVILLE   CLEAR     46  46  98 NW6       30.03R WCI  43
HONDO          CLEAR     43  41  93 N8        30.01R WCI  38
*UVALDE        CLEAR     49  47  92 NE8       30.01R WCI  46
DEL RIO        CLEAR     47  40  76 CALM      29.97R
*LAUGHLIN AFB  CLEAR     50  44  80 E7        29.97R WCI  47
*SPOFFORD      NOT AVBL
*EAGLE PASS    CLEAR     46  43  87 E7        29.98R WCI  43
CARRIZO SPRGS  CLEAR     45  41  87 CALM      29.98R
*FAITH RANCH   CLEAR     54  52  94 SE6       29.97S
$$

TXZ173-191>194-202-209-217>225-228-271400-
CENTRAL AND SOUTH CENTRAL TEXAS

CITY           SKY/WX    TMP DP  RH WIND       PRES   REMARKS
GEORGETOWN     CLEAR     43  41  93 CALM      30.05R
*TAYLOR        CLEAR     39  39  99 CALM      30.03R FOG
AUSTIN/BERGSTM CLEAR     41  40  96 W3        30.02R
AUSTIN/MABRY   CLEAR     48  44  86 CALM      30.03R
*PFLUGERVILLE  CLEAR     46  45  93 N7        30.03R FOG     WCI  43
SAN MARCOS     CLEAR     45  44  97 N5        30.02S WCI  43
NEW BRAUNFELS  CLEAR     46  43  89 N3        30.00R
*RANDOLPH AFB  CLEAR     45  44  98 NW5       30.01R WCI  43
*SEGUIN        CLEAR     43  43  99 N5        30.06R FOG     WCI  40
SAN ANTONIO    CLEAR     47  44  90 NW3       30.01R
STINSON FIELD  CLEAR     46  45  96 CALM      30.00R
*KELLY FIELD   CLEAR     46  45  95 N3        29.99R
*PLEASANTON    CLEAR     42  40  92 CALM      30.01R
*KENEDY        CLEAR     44  43  97 W3        30.02R
*LA GRANGE     CLOUDY    47  47 100 CALM      30.01R FOG
*GIDDINGS      FOG       48  48  99 CALM      30.03R VSB 3/4
*GONZALES      PTCLDY    47  47 100 N3        30.01R FOG
$$

TXZ163>164-176>182-195>201-210>213-226-227-235-271400-
SOUTHEAST TEXAS

CITY           SKY/WX    TMP DP  RH WIND       PRES   REMARKS
COLLEGE STN    FOG       50  49  96 E3        30.03R VSB 1/4
*BRYAN         FOG       50  50 100 NE5       30.05R VSB 1/4 WCI  48
*CALDWELL      FOG       46 N/A N/A NE3       30.03R VSB<1/4
*CROCKETT      NOT AVBL
*BRENHAM       FOG       52  52 100 CALM      30.03R VSB 1/4
HUNTSVILLE     FOG       52  51  97 NE5       30.03R VSB 1/4
CONROE         CLOUDY    52  52 100 CALM      30.04R FOG
HOUSTON BUSH   FOG       53  52  96 CALM      30.03R VSB 1/2
HOUSTON HOBBY  CLOUDY    58  51  78 E6        30.02R
*HOUSTON SW AP CLOUDY    56  54  95 CALM      30.03R
PEARLAND       CLOUDY    57  52  83 NE3       30.04R
HOUSTON HOOKS  FOG       53  51  93 NE5       30.03R VSB 3/4
ELLINGTON FLD  NOT AVBL
SUGAR LAND     CLOUDY    58  55  90 E7        30.02R
*HOUSTON EXEC  FOG       55  55 100 E7        30.03R VSB 3/4
*CLEVELAND MUN FOG       50  50 100 CALM      30.05R VSB 1/4
*WHARTON       CLOUDY    56  55  95 E7        30.02R FOG
*COLUMBUS      HAZE      51  45  82 CALM      30.04R VSB 1/2
*EAGLE LAKE    FOG       55  55  97 CALM      30.02  VSB 1/2
$$

TXZ214>216-236>238-271400-
THE UPPER TEXAS COAST

CITY           SKY/WX    TMP DP  RH WIND       PRES   REMARKS
*ORANGE        CLOUDY    55  51  86 NE10      30.03S
PORT ARTHUR    CLOUDY    55  51  86 NE12      30.00S
GALVESTON      CLOUDY    58  54  86 N7        30.03R
ANGLETON       CLOUDY    58  54  86 NE6       30.02R
*BAY CITY      CLOUDY    58  58 100 E3        30.01R FOG
PALACIOS       CLOUDY    58  57  97 E5        30.00R
$$

TXZ229>234-239>247-271400-
TEXAS COASTAL BEND AND RIO GRANDE PLAINS

CITY           SKY/WX    TMP DP  RH WIND       PRES   REMARKS
VICTORIA       FOG       55  53  93 E6        30.00R VSB 1/4
*BEEVILLE      NOT AVBL
ROCKPORT       FOG       52  49  89 CALM      29.99R VSB 1/4
*PORT ARANSAS  FOG       61  60  98 S5        30.02R VSB 1/2
*PORT LAVACA   NOT AVBL
*INGLESIDE     FOG       55  55  98 CALM      30.00R VSB<1/4
CORPUS CHRISTI FOG       52  52 100 CALM      29.99S VSB 1/4
CORPUS NAS     DRZL/FOG  53  53 100 CALM      30.00R VSB 1/4
*ROBSTOWN      FOG       51  50  95 CALM      30.00R VSB 1/4
ALICE          MOCLDY    47  46  97 NE5       29.99R FOG     WCI  45
KINGSVILLE NAS FOG       50  49  96 CALM      30.00R VSB 3/4
COTULLA        CLEAR     51  47  86 E6        29.99R
LAREDO         CLEAR     56  55  97 E7        29.98R
$$

TXZ248>255-271400-
DEEP SOUTH TEXAS

CITY           SKY/WX    TMP DP  RH WIND       PRES   REMARKS
BROWNSVILLE    FOG       58  58 100 CALM      30.00R VSB 1/2
PORT ISABEL    FAIR      56  54  93 N5        29.99R FOG
HARLINGEN      FOG       59  59 100 CALM      29.99S VSB 1/4
*HEBBRONVILLE  CLEAR     51  51  99 SW6       30.00R FOG
MCALLEN        CLOUDY    60  57  89 SE8       30.01R FOG
*WESLACO         N/A     58  56  94 CALM      30.00  FOG
FALFURRIAS     CLOUDY    52  50  93 CALM      30.00R VSB 1/4
EDINBURG       CLOUDY    58  57  97 SE5       30.01R FOG
*ZAPATA        FOG       52  51  98 CALM      30.00R VSB 1/4
$$

TXZ213>215-236>238-242>244-246-247-251-254-255-271400-
CMAN STATIONS

STATION/POSITION TIME  TEMP    WIND        PRES    WAVE
                       AIR SEA DIR/SP/G            HT/PER
                 (UTC) (F)     (DEG/KT/KT) (MB)    (FT/S)
SABINE PASS      1230           30/ 12/ 14   N/A
SEA RIM ST PARK  1300   54      40/  9/ 13 1015.8
NORTH JETTY/GLS  1230          100/  5/  6   N/A
EAGLE POINT      1230           50/  6/  8   N/A
MORGANS POINT    1230   54 60   10/  1/  3 1016.5
PORT O`CONNOR    1230          100/  4/  5   N/A
PORT ARANSAS     1300   60 61  180/  4/  5 1015.4
MALAQUITE BEACH  1218   55 63  220/  3/  4 1015.2
BAFFIN BAY       1218   58 65  250/  2/  3 1015.8
PORT ISABEL      1218   59 65  310/  2/  3 1015.7
$$



USA.gov is the U.S. government's official web portal to all federal, state and local government web resources and services.